Overview Statistics Trail Chart Weather Telemetry Raw packets
 

This is the latest recevied weather packets stored in our database for station/object HS2XQB-3. If no packets are shown the sender has not sent any weather packets the latest 10 day(s).

<< 13 14 15 16 17 18 19 >>
Time Temp. Humidity Pressure Rain* Wind** Luminosity Snow
1788037049 29.44° C 78% 1004 hPa - - 0 W/m² -
1788035226 29.44° C 77% 1004 hPa - - 0 W/m² -
1788033404 29.44° C 76% 1004 hPa - - 0 W/m² -
1788031582 29.44° C 76% 1004 hPa - - 0 W/m² -
1788029760 29.44° C 76% 1005 hPa - - 0 W/m² -
1788027938 29.44° C 75% 1005 hPa - - 0 W/m² -
1788026116 29.44° C 75% 1005 hPa - - 0 W/m² -
1788024293 29.44° C 75% 1005 hPa - - 0 W/m² -
1788022471 29.44° C 74% 1006 hPa - - 0 W/m² -
1788020649 29.44° C 73% 1006 hPa - - 0 W/m² -
1788018827 29.44° C 72% 1006 hPa - - 0 W/m² -
1788017005 29.44° C 72% 1006 hPa - - 0 W/m² -
1788015183 28.89° C 73% 1006 hPa - - 0 W/m² -
1788013361 28.89° C 71% 1005 hPa - - 0 W/m² -
1788011539 28.89° C 70% 1005 hPa - - 0 W/m² -
1788009717 28.89° C 69% 1005 hPa - - 0 W/m² -
1788007895 28.89° C 69% 1004 hPa - - 0 W/m² -
1788006073 28.33° C 68% 1004 hPa - - 0 W/m² -
1788004251 27.78° C 67% 1003 hPa - - 0 W/m² -
1788002429 27.22° C 62% 1003 hPa - - 0 W/m² -
1788000607 26.11° C 56% 1002 hPa - - 0 W/m² -
1787998785 21.67° C 41% 1003 hPa - - 0 W/m² -
1787996963 21.67° C 41% 1003 hPa - - 0 W/m² -
1787995141 22.22° C 41% 1003 hPa - - 0 W/m² -
1787993318 22.22° C 43% 1003 hPa - - 0 W/m² -

* Rain since midnight (hover to see other rain measurements)
** Current wind speed in m/s (hover to see current wind gust speed)